Regional Weather Roundup
Issued by NWS Green Bay, WI

Home | Current Version | Previous Version | Graphics & Text | Print | Product List | Glossary Off
Versions: 1 2 3 4 5 6 7 8 9 10 11 12 13 14 15 16 17 18 19 20 21 22 23 24 25 26 27 28 29 30 31 32 33 34 35 36 37 38 39 40 41 42 43 44 45 46 47 48 49 50

000
ASUS43 KGRB 211712
RWRGRB

NORTH-CENTRAL AND NORTHEAST WISCONSIN REGIONAL WEATHER ROUNDUP
NATIONAL WEATHER SERVICE GREEN BAY WI
1200 PM CDT SAT OCT 21 2017

WIZ005-009-010>012-018-019-211800-
NORTH CENTRAL WISCONSIN

CITY           SKY/WX    TMP DP  RH WIND       PRES   REMARKS
IRONWOOD       MOSUNNY   66  55  67 S18G24    29.76F
MANITOWISH WTR PTSUNNY   65  55  69 S20       29.82F
ARBOR VITAE    MOSUNNY   63  54  72 S12G22    29.83F
EAGLE RIVER    NOT AVBL
LAND O LAKES   MOSUNNY   66  51  58 S10G17    29.87F
RHINELANDER    CLOUDY    63  55  75 S10G18    29.87F
PHILLIPS       CLOUDY    61  55  78 S15G22    29.83R
ANTIGO         LGT RAIN  62  56  80 S9        29.90F
TOMAHAWK       PTSUNNY   63  53  70 S3        29.86F
MERRILL        CLOUDY    63  56  78 S5        29.88S
$$

WIZ013-073-211800-
NORTHEAST WISCONSIN

CITY           SKY/WX    TMP DP  RH WIND       PRES   REMARKS
IRON MOUNTAIN  CLOUDY    70  50  49 S13G23    29.92R
MARINETTE      SUNNY     68  52  56 SW20G28   29.95F
OCONTO         SUNNY     68  51  55 S12       29.94F
$$

WIZ017-030-035>037-045-211800-
CENTRAL WISCONSIN

CITY           SKY/WX    TMP DP  RH WIND       PRES   REMARKS
MEDFORD        CLOUDY    62  54  73 S13G21    29.85R
WAUSAU         PTSUNNY   65  56  72 S12       29.85F
MOSINEE        MOSUNNY   64  57  77 S9        29.89F
MARSHFIELD     CLOUDY    65  54  67 S15G30    29.84F
WISC RAPIDS    PTSUNNY   69  58  67 SW13      29.87F
STEVENS POINT  CLOUDY    66  56  69 S14       29.87F
WAUPACA        SUNNY     73  53  49 S14       29.92F
SHAWANO        SUNNY     72  53  50 S9        29.93F
CLINTONVILLE   NOT AVBL
WAUTOMA        SUNNY    N/A N/A N/A S10G21    29.92F
$$

WIZ038-039-048-051-211800-
FOX VALLEY

CITY           SKY/WX    TMP DP  RH WIND       PRES   REMARKS
NWS GREEN BAY  SUNNY     70  52  52 S18G26    29.95F
APPLETON       MOSUNNY   70  48  46 S16G23    29.94F
OSHKOSH        SUNNY     69  53  56 S18       29.94F
FOND DU LAC    SUNNY     70  50  49 S15G23    29.95F
$$

WIZ022-050-052-211800-
EAST CENTRAL WISCONSIN

CITY           SKY/WX    TMP DP  RH WIND       PRES   REMARKS
EPHRAIM        FAIR      62  52  70 S21       29.96F
WASHINGTON ISL FAIR      59  53  81 S13G24    29.97S
STURGEON BAY   MOSUNNY   63  53  70 S21G31    29.97S
MANITOWOC      MOSUNNY   61  53  75 S14       29.99S
SHEBOYGAN      MOSUNNY   67  55  65 S12       29.98F
$$

LMZ563-521-522-541>543-211800-
LAKESHORE

STATION/POSITION TIME  TEMP    WIND        PRES    VSBY  WAVE
                       AIR SEA DIR/SP/G                  HT/PER
                 (UTC) (F)     (DEG/KT/KT) (MB)    (MI)  (FT/S)
SHEBOYGAN LKSHOR 1700   56     180/ 18/ 19 1015.2F
KEWAUNEE LKSHORE 1642   54     190/  9/ 12 1014.7F
NORTHPORT PIER   1640   62     160/ 13/ 20 1014.9S
N MID LAKE BUOY  1650   61 58  180/ 21/ 25 1015.4F         6/ 6
S GREEN BAY BUOY 1700   62 58  190/ 10/ 12 1014.1
SISTER BAY LKSHO 1619   66     190/ 23/ 32   N/A
MENOMINEE LKSHOR 1642   62     160/ 13/ 16 1014.1F
$$




USA.gov is the U.S. government's official web portal to all federal, state and local government web resources and services.